Regional Weather Roundup
Issued by NWS

Home | Current Version | Previous Version | Graphics & Text | Print | Product List | Glossary Off
Versions: 1 2 3 4 5 6 7 8 9 10 11 12 13 14 15 16 17 18 19 20 21 22 23 24 25 26 27 28 29 30 31 32 33 34 35 36 37 38 39 40 41 42 43 44 45 46 47 48 49 50

000
ASUS43 KLSX 230007
RWRMO

WEATHER SUMMARY FOR MISSOURI
NATIONAL WEATHER SERVICE SPRINGFIELD MO
600 PM CST MON JAN 22 2018

NOTE: "FAIR" INDICATES FEW OR NO CLOUDS BELOW 12,000 FEET WITH NO
       SIGNIFICANT WEATHER AND/OR OBSTRUCTIONS TO VISIBILITY.
       CURRENT SKY AND/OR WEATHER CONDITIONS ARE NOT AVAILABLE FOR
       CHILLICOTHE AND FARMINGTON.

MOZ001>031-035>038-043-044-053-054-230100-
...NORTHERN AND WESTERN MISSOURI...

CITY           SKY/WX    TMP DP  RH WIND       PRES   REMARKS
KANSAS CTY INT FRZ DRZL  32  31  96 W15       29.56R FOG     WCI  22
6HR MIN TEMP:  32; 6HR MAX TEMP:  37; 6HR PCP:  0.07;

KANSAS C DTWN  LGT SNOW  33  30  88 W14       29.57R FOG     WCI  23
6HR MIN TEMP:  33; 6HR MAX TEMP:  40; 6HR PCP:  0.01;

LEE`S SUMMIT   LGT SNOW  32  30  92 W15G24    29.58R FOG     WCI  22
6HR MIN TEMP:  32; 6HR MAX TEMP:  37; 6HR PCP:  0.01;

ST JOSEPH      LGT RAIN  34  33  96 NW26G35   29.56R WCI  21
6HR MIN TEMP:  33; 6HR MAX TEMP:  36; 6HR PCP:  0.07;

CHILLICOTHE      N/A     36  32  85 SW7       29.50R
6HR MIN TEMP:  36; 6HR MAX TEMP:  39; 6HR PCP:  0.03;

KIRKSVILLE     LGT SNOW  33  33 100 S7        29.47R FOG     WCI  27
6HR MIN TEMP:  33; 6HR MAX TEMP:  44; 6HR PCP:  0.09;


$$
MOZ066>068-077>081-088>096-101>105-230100-
...SOUTHWEST MISSOURI...

CITY           SKY/WX    TMP DP  RH WIND       PRES   REMARKS
SPRINGFIELD    CLOUDY    36  32  85 W18G38    29.69R WCI  26
6HR MIN TEMP:  36; 6HR MAX TEMP:  42; 6HR PCP: TRACE;

JOPLIN         CLOUDY    37  31  78 W21G31    29.75R WCI  26
6HR MIN TEMP:  35; 6HR MAX TEMP:  42; 6HR PCP: TRACE;

BRANSON        CLOUDY    41  27  56 SW17G43   29.73R

$$
MOZ032>034-039>042-045>050-055>058-069>072-230100-
...CENTRAL MISSOURI...

CITY           SKY/WX    TMP DP  RH WIND       PRES   REMARKS
COLUMBIA       CLOUDY    38  34  85 SW22G30   29.55R WCI  27
6HR MIN TEMP:  38; 6HR MAX TEMP:  43; 6HR PCP: TRACE;

JEFFERSON CITY CLOUDY    41  32  70 SW24G38   29.58R
6HR MIN TEMP:  41; 6HR MAX TEMP:  45;

ROLLA          CLOUDY    39  33  79 SW20G25   29.61R WCI  29
6HR MIN TEMP:  39; 6HR MAX TEMP:  48; 6HR PCP: TRACE;

SEDALIA        CLOUDY    37  33  85 W16G30    29.57R WCI  28
6HR MIN TEMP:  37; 6HR MAX TEMP:  42; 6HR PCP:  0.02;

WHITEMAN AFB   CLOUDY    34  29  83 W21G30    29.53R WCI  22
WARRENSBURG    CLOUDY    34  30  86 SW16G23   29.57R WCI  23
OSAGE BEACH    CLOUDY    38  32  79 SW18G26   29.62R WCI  28

$$
MOZ051-052-059>065-230100-
...EAST CENTRAL MISSOURI...

CITY           SKY/WX    TMP DP  RH WIND       PRES   REMARKS
ST LOUIS INTL  MOCLDY    46  28  49 SW22G29   29.59R
6HR MIN TEMP:  46; 6HR MAX TEMP:  62;

SPIRIT OF STL  CLOUDY    46  29  51 SW16G30   29.58R
6HR MIN TEMP:  46; 6HR MAX TEMP:  60;

ST CHARLES     CLOUDY    45  30  55 SW24G33   29.57S
6HR MIN TEMP:  45; 6HR MAX TEMP:  62;


$$
MOZ072>076-082>087-097>100-106>115-230100-
...SOUTH CENTRAL AND SOUTHEAST MISSOURI...

CITY           SKY/WX    TMP DP  RH WIND       PRES   REMARKS
CAPE GIRARDEAU MOCLDY    50  32  50 SW21G35   29.66R
6HR MIN TEMP:  50; 6HR MAX TEMP:  58;

FARMINGTON     CLOUDY    45  27  49 SW22G31   29.64R
6HR MIN TEMP:  44; 6HR MAX TEMP:  59;

POPLAR BLUFF   CLOUDY    50  29  44 SW18G29   29.69R
6HR MIN TEMP:  50; 6HR MAX TEMP:  59;

WEST PLAINS    CLOUDY    43  29  57 W20G35    29.68R
6HR MIN TEMP:  43; 6HR MAX TEMP:  51;


$$



USA.gov is the U.S. government's official web portal to all federal, state and local government web resources and services.